This demonstration page uses our WeatherBlox Daily Observations layout. Learn more.

Left ArrowRight Arrow

Hourly Observations for February 24, 2016

Temp ( °F °C ) Dew Point ( °F °C ) Humidity (%) Winds ( mph kmh ) Pressure ( in mb ) Visibility ( mi km ) Precip ( " mm )
12:15 am 00:15 Clear 27 -3 18 -7.7 70 70 WNW 5 7 30.24 1024 10 16 N/A
12:35 am 00:35 Clear 26 -3.3 18 -7.7 72 72 WNW 3 6 30.24 1024 10 16 N/A
12:55 am 00:55 Clear 27 -2.8 19 -7.4 71 71 NW 6 9 30.24 1024 10 16 N/A
1:15 am 01:15 Clear 28 -2.1 19 -7 69 69 WNW 8 13 30.21 1023 10 16 N/A
1:35 am 01:35 Clear 28 -2.3 19 -7 70 70 WNW 6 9 30.21 1023 10 16 N/A
1:55 am 01:55 Clear 27 -2.6 19 -7 72 72 WNW 5 7 30.24 1024 10 16 N/A
2:15 am 02:15 Clear 26 -3.3 19 -7.2 75 75 WNW 7 11 30.24 1024 10 16 N/A
2:35 am 02:35 Clear 27 -2.9 20 -6.6 76 76 WNW 7 11 30.21 1023 10 16 N/A
2:55 am 02:55 Clear 26 -3.5 19 -7 77 77 NW 6 9 30.24 1024 10 16 N/A
3:15 am 03:15 Clear 26 -3.6 20 -6.9 78 78 WNW 7 11 30.21 1023 10 16 N/A
3:35 am 03:35 Clear 28 -2.1 21 -6.3 73 73 WNW 8 13 30.18 1022 10 16 N/A
3:55 am 03:55 Clear 27 -2.6 20 -6.5 75 75 WNW 9 15 30.21 1023 10 16 N/A
4:15 am 04:15 Clear 28 -2.4 21 -6.2 75 75 NW 8 13 30.18 1022 10 16 N/A
4:35 am 04:35 Clear 28 -2.1 20 -6.5 72 72 NW 9 15 30.18 1022 10 16 N/A
4:55 am 04:55 Clear 28 -2.5 20 -6.5 74 74 NW 8 13 30.18 1022 10 16 N/A
5:15 am 05:15 Clear 26 -3.4 20 -6.6 79 79 NW 7 11 30.21 1023 10 16 N/A
5:35 am 05:35 Clear 25 -3.7 20 -6.9 79 79 NW 6 9 30.21 1023 10 16 N/A
5:55 am 05:55 Clear 24 -4.2 19 -7.2 80 80 NW 7 11 30.21 1023 10 16 N/A
6:15 am 06:15 Clear 24 -4.2 20 -6.8 82 82 NW 7 11 30.21 1023 10 16 N/A
6:35 am 06:35 Clear 24 -4.2 20 -6.9 82 82 NW 7 11 30.21 1023 10 16 N/A
6:55 am 06:55 Clear 25 -3.7 20 -6.5 81 81 NW 9 15 30.21 1023 10 16 N/A
7:15 am 07:15 Clear 25 -3.8 20 -6.7 81 81 NW 7 11 30.21 1023 10 16 N/A
7:35 am 07:35 Sunny 26 -3.4 20 -6.6 79 79 NW 8 13 30.21 1023 10 16 N/A
7:55 am 07:55 Sunny 27 -2.6 21 -6.3 76 76 NW 9 15 30.21 1023 10 16 N/A
8:15 am 08:15 Sunny 29 -1.6 21 -6 72 72 NW 8 13 30.18 1022 10 16 N/A
8:35 am 08:35 Sunny 31 -0.8 22 -5.7 70 70 NW 10 17 30.18 1022 10 16 N/A
8:55 am 08:55 Sunny 32 undefined 23 -5.2 68 68 NNW 7 11 30.18 1022 10 16 N/A
9:15 am 09:15 Sunny 33 0.8 23 -5 66 66 NNW 6 9 30.15 1021 10 16 N/A
9:35 am 09:35 Sunny 35 1.7 23 -4.9 62 62 NNW 7 11 30.15 1021 10 16 N/A
9:55 am 09:55 Sunny 37 2.5 23 -5 58 58 NW 7 11 30.15 1021 10 16 N/A
10:15 am 10:15 Sunny 38 3.5 23 -4.9 55 55 NW 6 9 30.12 1020 10 16 N/A
10:35 am 10:35 Sunny 39 4 23 -4.9 53 53 NNW 6 9 30.12 1020 10 16 N/A
10:55 am 10:55 Sunny 40 4.7 24 -4.7 51 51 NW 7 11 30.12 1020 10 16 N/A
11:15 am 11:15 Sunny 43 6.1 23 -4.9 46 46 NNW 7 11 30.12 1020 10 16 N/A
11:35 am 11:35 Sunny 44 6.9 23 -5.1 42 42 NW 8 13 30.06 1018 10 16 N/A
11:55 am 11:55 Sunny 45 7.4 20 -6.8 36 36 WNW 7 11 30.06 1018 10 16 N/A
12:15 pm 12:15 Sunny 47 8.1 20 -6.7 35 35 WNW 6 9 30.06 1018 10 16 N/A
12:35 pm 12:35 Sunny 47 8.4 19 -7.1 33 33 NW 7 11 30.03 1017 10 16 N/A
12:55 pm 12:55 Sunny 49 9.3 18 -7.6 30 30 NW 12 19 30.03 1017 10 16 N/A
1:15 pm 13:15 Sunny 49 9.6 19 -7.3 30 30 WNW 10 17 30.00 1016 10 16 N/A
1:35 pm 13:35 Sunny 50 10 19 -7.4 29 29 NW 9 15 30.00 1016 10 16 N/A
1:55 pm 13:55 Sunny 51 10.4 19 -7.3 28 28 WNW 10 17 29.97 1015 10 16 N/A
2:15 pm 14:15 Sunny 51 10.5 19 -7.4 28 28 NNW 15 24 29.97 1015 10 16 N/A
2:35 pm 14:35 Partly Cloudy 51 10.7 19 -7.4 28 28 NW 16 26 29.97 1015 10 16 N/A
2:55 pm 14:55 Mostly Cloudy 51 10.7 18 -7.6 27 27 NW 18 30 29.97 1015 10 16 N/A
3:15 pm 15:15 Cloudy 49 9.5 20 -6.8 31 31 NW 17 28 29.97 1015 10 16 N/A
3:35 pm 15:35 Mostly Cloudy 47 8.6 19 -7 33 33 N 21 33 30.03 1017 10 16 N/A
3:55 pm 15:55 Mostly Cloudy 47 8.1 19 -7.2 33 33 N 29 46 30.03 1017 10 16 N/A
4:15 pm 16:15 Partly Cloudy 46 7.7 20 -6.5 36 36 NNW 25 41 30.06 1018 10 16 N/A
4:35 pm 16:35 Partly Cloudy 45 7.4 22 -5.4 40 40 NNW 29 46 30.06 1018 10 16 N/A
4:55 pm 16:55 Partly Cloudy 44 6.7 22 -5.3 42 42 NNW 25 41 30.09 1019 10 16 N/A
5:15 pm 17:15 Sunny 44 6.5 18 -7.9 35 35 NNW 22 35 30.09 1019 10 16 N/A
5:35 pm 17:35 Sunny 42 5.6 19 -7.2 40 40 NNW 25 41 30.12 1020 10 16 N/A
5:55 pm 17:55 Sunny 40 4.6 21 -6.3 45 45 N 20 31 30.15 1021 10 16 N/A
6:15 pm 18:15 Sunny 39 3.8 20 -6.7 47 47 N 15 24 30.15 1021 10 16 N/A
6:35 pm 18:35 Clear 37 3 19 -7.1 48 48 N 13 20 30.18 1022 10 16 N/A
6:55 pm 18:55 Clear 36 2 19 -7.1 51 51 N 9 15 30.21 1023 10 16 N/A
7:15 pm 19:15 Clear 34 1.3 19 -7.1 54 54 N 9 15 30.21 1023 10 16 N/A
7:35 pm 19:35 Clear 31 -0.5 19 -7.2 61 61 N 6 9 30.24 1024 10 16 N/A
7:55 pm 19:55 Clear 33 0.4 19 -7.2 57 57 NNW 7 11 30.24 1024 10 16 N/A
8:15 pm 20:15 Clear 29 -1.9 18 -7.7 65 65 NW 7 11 30.24 1024 10 16 N/A
8:35 pm 20:35 Partly Cloudy 27 -2.6 18 -7.6 69 69 NW 8 13 30.27 1025 10 16 N/A
8:55 pm 20:55 Clear 32 undefined 19 -7.5 57 57 NNW 13 20 30.24 1024 10 16 N/A
9:15 pm 21:15 Clear 33 0.4 18 -8 54 54 N 10 17 30.24 1024 10 16 N/A
9:35 pm 21:35 Clear 32 -0.1 18 -7.8 57 57 NNW 12 19 30.27 1025 10 16 N/A
9:55 pm 21:55 Clear 32 0.1 19 -7.3 58 58 N 15 24 30.27 1025 10 16 N/A
10:15 pm 22:15 Clear 32 undefined 19 -7.1 59 59 N 14 22 30.27 1025 10 16 N/A
10:35 pm 22:35 Clear 31 -0.3 19 -7.5 59 59 NNW 15 24 30.27 1025 10 16 N/A
10:55 pm 22:55 Clear 31 -0.6 19 -7.3 61 61 NNW 12 19 30.30 1026 10 16 N/A
11:15 pm 23:15 Clear 30 -1 19 -7 64 64 NW 13 20 30.30 1026 10 16 N/A
11:35 pm 23:35 Clear 30 -1.2 19 -7 65 65 NNW 14 22 30.30 1026 10 16 N/A
11:55 pm 23:55 Clear 29 -1.5 20 -6.9 67 67 NNW 10 17 30.30 1026 10 16 N/A

Powered by AerisWeather